sat.trackr.live / text

‹ back to catalog

STARLINK-2412

NORAD 48094 · 2021-027C

PAYLOAD ACTIVE UNKNOWN

§ Identity

Operator
Country
US
Launch date
2021-04-07
Launch site
AFETR
Launch vehicle
Mass (kg)
RCS (m²)

Purposes: comms

External: N2YO · Heavens-Above · Gunter

§ Orbital elements

Epoch: 2026-09-19T17:15:34.249824Z

Period
94.01 min
Inclination
53.1611°
Eccentricity
0.0001078
Mean motion
15.31714255 rev/d
Perigee alt
470.0 km
Apogee alt
471.4 km
Semi-major
6,848.8 km
B*
7.8013e-5
RAAN
342.7665°
Arg perigee
72.0689°
Mean anomaly
288.0430°
Rev number
30,224

§ Raw data

STARLINK-24121 48094U 21027C   26262.71914641  .00002058  00000+0  78013-4 0  99952 48094  53.1611 342.7665 0001078  72.0689 288.0430 15.31714255302245

JSON: /api/v1/satellites/48094 · /tle

For live sub-satellite position, see the globe view (requires WebGL).

§ Visibility from observer

Set your observer location to see the next 7 days of passes ≥ 10°. The values pass through the URL so the page stays shareable.

No JS? Fill the form by hand. The geolocation button needs JavaScript.